Вернуться в каталог

STARLINK-3658

АктивенСвязьVLEO
NORAD 52107·PAYLOAD·🇺🇸 United States

Запущен Mar 19, 2022 с Cape Canaveral Space Force Station

Loading…

Ближайшие Пролёты (ближайшие 24 часа)

TLE

СвежийSource: CelesTrak SupGP

Эпоха: Sep 15, 2026, 02:22 UTC

1 52107C 22029V   26258.09909722  .00024806  00000+0  73282-3 0  2583
2 52107  53.1573 294.6188 0001141  89.6251 182.9957 15.34381113    19

Отслеживайте STARLINK-3658 в реальном времени с AllMySat

Download on the App Store